TimeMDT,TemperatureF,Dew PointF,Humidity,Sea Level PressureIn,VisibilityMPH,Wind Direction,Wind SpeedMPH,Gust SpeedMPH,PrecipitationIn,Events,Conditions,WindDirDegrees,DateUTC
12:53 AM,48.0,39.9,74,30.27,10.0,Calm,Calm,-,N/A,,Clear,0,2012-10-14 06:53:00
1:53 AM,46.0,39.9,79,30.27,10.0,Calm,Calm,-,N/A,,Clear,0,2012-10-14 07:53:00
2:53 AM,46.0,39.9,79,30.28,10.0,Calm,Calm,-,N/A,,Clear,0,2012-10-14 08:53:00
3:53 AM,41.0,37.0,86,30.29,10.0,West,3.5,-,N/A,,Clear,270,2012-10-14 09:53:00
4:53 AM,42.1,37.0,82,30.28,10.0,Calm,Calm,-,N/A,,Clear,0,2012-10-14 10:53:00
5:53 AM,41.0,37.0,86,30.28,10.0,Calm,Calm,-,N/A,,Clear,0,2012-10-14 11:53:00
6:53 AM,39.9,35.1,83,30.29,10.0,Calm,Calm,-,N/A,,Clear,0,2012-10-14 12:53:00
7:53 AM,39.0,35.1,86,30.30,10.0,Calm,Calm,-,N/A,,Clear,0,2012-10-14 13:53:00
8:53 AM,41.0,36.0,82,30.31,10.0,Calm,Calm,-,N/A,,Clear,0,2012-10-14 14:53:00
9:53 AM,46.0,39.0,76,30.31,10.0,Calm,Calm,-,N/A,,Clear,0,2012-10-14 15:53:00
10:53 AM,54.0,41.0,62,30.30,10.0,Calm,Calm,-,N/A,,Clear,0,2012-10-14 16:53:00
11:53 AM,59.0,43.0,55,30.27,10.0,Calm,Calm,-,N/A,,Clear,0,2012-10-14 17:53:00
12:53 PM,64.0,44.1,48,30.24,10.0,Variable,3.5,-,N/A,,Clear,0,2012-10-14 18:53:00
1:53 PM,68.0,43.0,40,30.20,10.0,Variable,4.6,-,N/A,,Clear,0,2012-10-14 19:53:00
2:53 PM,69.1,44.1,40,30.16,10.0,Calm,Calm,-,N/A,,Clear,0,2012-10-14 20:53:00
3:53 PM,73.0,44.1,35,30.13,10.0,Calm,Calm,-,N/A,,Clear,0,2012-10-14 21:53:00
4:53 PM,75.0,45.0,34,30.08,10.0,ESE,4.6,-,N/A,,Clear,120,2012-10-14 22:53:00
5:53 PM,73.9,43.0,33,30.06,6.0,Calm,Calm,-,N/A,,Haze,0,2012-10-14 23:53:00
5:57 PM,73.4,42.8,33,30.07,1.8,Calm,Calm,-,N/A,,Haze,0,2012-10-14 23:57:00
6:10 PM,73.4,42.8,33,30.06,4.0,Calm,Calm,-,N/A,,Haze,0,2012-10-15 00:10:00
6:53 PM,70.0,43.0,38,30.05,10.0,Calm,Calm,-,N/A,,Clear,0,2012-10-15 00:53:00
7:53 PM,68.0,44.1,42,30.05,10.0,North,5.8,-,N/A,,Clear,350,2012-10-15 01:53:00
8:53 PM,64.9,43.0,45,30.04,10.0,North,3.5,-,N/A,,Clear,10,2012-10-15 02:53:00
9:53 PM,55.9,43.0,62,30.03,10.0,West,3.5,-,N/A,,Clear,270,2012-10-15 03:53:00
10:53 PM,55.9,43.0,62,30.01,10.0,WSW,4.6,-,N/A,,Clear,240,2012-10-15 04:53:00
11:53 PM,52.0,42.1,69,30.00,10.0,WSW,5.8,-,N/A,,Clear,250,2012-10-15 05:53:00